Regional Weather Roundup
Issued by NWS Charleston, SC

Current Version | Previous Version | Graphics & Text | Print | Product List | Glossary On
Versions: 1 2 3 4 5 6 7 8 9 10 11 12 13 14 15 16 17 18 19 20 21 22 23 24 25 26 27 28 29 30 31 32 33 34 35 36 37 38 39 40 41 42 43 44 45 46 47 48 49 50
000
ASUS42 KCHS 201210
RWRCHS

REGIONAL WEATHER ROUNDUP
NATIONAL WEATHER SERVICE CHARLESTON SC
800 AM EDT SUN APR 20 2014

NOTE: "FAIR" INDICATES FEW OR NO CLOUDS BELOW 12,000 FEET WITH NO
SIGNIFICANT WEATHER AND/OR OBSTRUCTIONS TO VISIBILITY.

NOT ALL STATIONS ARE QUALITY CONTROLLED BY THE NATIONAL
WEATHER SERVICE. USE DATA WITH CAUTION...ESPECIALLY
DEWPOINT OBSERVATIONS.

SCZ027-030-031-034>040-042>050-201300-
...SOUTH CAROLINA...

CITY           SKY/WX    TMP DP  RH WIND       PRES   REMARKS
N CHARLESTON   CLOUDY    54  50  86 N10       30.07R
6HR MIN TEMP:  53; 6HR MAX TEMP:  54; 6HR PCP:  0.13;

WATERFRONT PRK   N/A     54 N/A N/A NW13        N/A
FORT JOHNSON   NOT AVBL
MOUNT PLEASANT DRIZZLE  N/A N/A N/A N9G17     30.05R
JOHNS ISLAND   CLOUDY    54  54 100 N13       30.07R
PINOPOLIS        N/A     54  52  94 NE16      30.01R
MONCKS CORNER  CLOUDY    54  54 100 N9G16     30.08R
SUMMERVILLE    NOT AVBL
BEAUFORT MCAS  CLOUDY    54  50  86 NE10      30.09R
6HR MIN TEMP:  53; 6HR MAX TEMP:  54; 6HR PCP: TRACE;

BEAUFORT ARPT  CLOUDY    54  52  94 N13       30.08R
HILTON HEAD IS NOT AVBL
GEORGETOWN     NOT AVBL
WALTERBORO     CLOUDY    52 N/A N/A N7        30.11R
ORANGEBURG     CLOUDY    51  48  89 NE10      30.14R
6HR MIN TEMP:  50; 6HR MAX TEMP:  51; 6HR PCP:  0.04;

BARNWELL       DRIZZLE   52  50  93 N12       30.15R
AIKEN          CLOUDY    52  50  93 N10       30.20S
MANNING        CLOUDY    52 N/A N/A N9G17     30.11R
KINGSTREE      NOT AVBL
COLUMBIA       CLOUDY    54  47  77 NW7       30.17R
6HR MIN TEMP:  51; 6HR MAX TEMP:  55; 6HR PCP: TRACE;

SUMTER         CLOUDY    51  46  82 N10       30.13R
6HR MIN TEMP:  49; 6HR MAX TEMP:  51; 6HR PCP:  0.08;

FLORENCE       CLOUDY    52  44  74 NE9       30.14R
6HR MIN TEMP:  49; 6HR MAX TEMP:  52; 6HR PCP:  0.02;

MYRTLE BEACH   CLOUDY    54  48  82 N20       30.07R
N MYRTLE BEACH LGT RAIN  52  46  80 N18G30    30.07S
6HR MIN TEMP:  52; 6HR MAX TEMP:  54; 6HR PCP:  0.33;


$$

GAZ063-065-086>088-099>101-113>116-118-119-134-136>141-150-201300-
...GEORGIA...

CITY           SKY/WX    TMP DP  RH WIND       PRES   REMARKS
SAVANNAH ARPT  LGT RAIN  53  50  89 N12       30.10R FOG
6HR MIN TEMP:  53; 6HR MAX TEMP:  54; 6HR PCP: TRACE;

HUNTER AAF     CLOUDY    53  50  92 VRB3      30.08R
6HR MIN TEMP:  53; 6HR MAX TEMP:  54;

FORT STEWART   CLOUDY    52  52 100 N9        30.08R
6HR MIN TEMP:  52; 6HR MAX TEMP:  54;

STATESBORO     NOT AVBL
SYLVANIA       DRIZZLE   53  50  90 NE8       30.14R
CLAXTON        CLOUDY    54  54 100 N8        30.12R FOG
THOMSON        CLOUDY    50  49  97 NE8       30.23R
AUGUSTA-BUSH   CLOUDY    51  47  86 N10       30.19R
6HR MIN TEMP:  50; 6HR MAX TEMP:  52; 6HR PCP:  0.02;

AUGUSTA-DANIEL CLOUDY    52  48  86 N9        30.19R
SWAINSBORO     CLOUDY    50  50 100 NE14G22   30.14S
VIDALIA        CLOUDY    52  50  93 N10       30.13R
ALMA           CLOUDY    52  49  89 N6        30.11R FOG
6HR MIN TEMP:  52; 6HR MAX TEMP:  56;

WAYCROSS       NOT AVBL
JESUP          CLOUDY    52  52 100 NE7       30.10R FOG
BRUNSWICK      CLOUDY    54  54 100 N6        30.08R
SAINT SIMONS   LGT RAIN  54  53  97 N12       30.08R FOG
6HR MIN TEMP:  54; 6HR MAX TEMP:  56; 6HR PCP: TRACE;


$$

SCZ027-028-034-036>038-045-046-048>050-GAZ119-141-201300-
...LAKE AND SUPPLEMENTAL COASTAL OBSERVATIONS...

STATION/POSITION TIME  TEMP    WIND        PRES    WAVE   SWELL
                       AIR SEA DIR/SP/G            HT/PER HT/PER/DIR
                 (UTC) (F)     (DEG/KT/KT) (MB)    (FT/S) (FT/S/D)
UPR LAKE MARION  NOT AVBL
WINYAH BAY       1100   54     360/  6     1018.0R
LAKE MURRAY      1100   51     360/  4/  7 1021.0R
ACE BASIN NERRS  1100   52      10/  4     1018.0R
FORT PULASKI     1200   54 58  360/ 12/ 17 1018.8R
SAPELO ISLAND    1100   54     360/ 12     1017.0S

$$

ANZ835-935-AMZ111-154-330-350-352-354-374-450-454-472-201300-
...C-MAN AND BUOY OBSERVATIONS...

STATION/POSITION TIME  TEMP    WIND        PRES    WAVE   SWELL
                       AIR SEA DIR/SP/G            HT/PER HT/PER/DIR
                 (UTC) (F)     (DEG/KT/KT) (MB)    (FT/S) (FT/S/D)
FOLLY BEACH CMAN 1100   54     360/ 11/ 13 1017.5R
BUOY 41004       NOT AVBL
BUOY 41008       1200   57 63   10/ 21/ 25 1017.0R   6/ 6   2/ 90/ 9
5E ST. MARYS GA  1200      63                N/A     6/ 5   2/ 90/11
FRYING PAN BUOY  1200   61 69   30/ 31/ 37 1013.8R  11/ 8
BUOY 41025       1200   67 76   60/ 33/ 43 1014.4F  14/10
CAPE LOOKOUT NC  1100   57      20/ 23/ 29 1016.2R
BUOY 41002       NOT AVBL
BUOY 41010       1200   72 76  270/ 10/ 14 1013.4R   6/ 8   5/100/ 8
BUOY 41012       NOT AVBL
ST AUGUSTINE FL  1200   57     340/ 16/ 18 1018.2R
CAPERS NEARSHORE NOT AVBL
FRIPP NEARSHORE  1100   55      10/ 16/ 19   N/A


$$


USA.gov is the U.S. government's official web portal to all federal, state and local government web resources and services.